Regional Weather Roundup
Issued by NWS

Home | Current Version | Previous Version | Graphics & Text | Print | Product List | Glossary On
Versions: 1 2 3 4 5 6 7 8 9 10 11 12 13 14 15 16 17 18 19 20 21 22 23 24 25 26 27
000
ASUS45 KCYS 051010
RWRWY

WYOMING REGIONAL WEATHER ROUNDUP
NATIONAL WEATHER SERVICE CHEYENNE WY
400 AM MDT THU MAY 05 2016

NOTE:  "FAIR" INDICATES FEW OR NO CLOUDS BELOW 12,000 FEET
WITH NO SIGNIFICANT WEATHER AND/OR OBSTRUCTIONS TO VISIBILITY.

WYZ001-051100-
YELLOWSTONE NATIONAL PARK

CITY           SKY/WX    TMP DP  RH WIND       PRES   REMARKS
LK YELLOWSTONE   N/A     32  28  85 CALM      30.19F
W YELLOWSTONE  NOT AVBL

$$
WYZ002>013-054>058-071-098>099-051100-
NORTHERN WYOMING

CITY           SKY/WX    TMP DP  RH WIND       PRES   REMARKS
JACKSON        FAIR      37  30  75 N3        30.13S
CODY           FAIR      57  28  33 SW6       29.99S
GREYBULL       FAIR      55  31  39 SE6       29.94F
WORLAND        FAIR      51  38  60 SE9       29.96S
SHERIDAN       FAIR      47  36  65 CALM      29.94S
BUFFALO        FAIR      55  28  35 SW9       30.00F
GILLETTE       FAIR      53  40  61 S14       29.98S
HULETT         FAIR      61  37  41 SW7       30.00S
NEWCASTLE      FAIR      55  36  47 E9        30.03S

$$
WYZ014>020-022>026-101>103-051100-
CENTRAL WYOMING

CITY           SKY/WX    TMP DP  RH WIND       PRES   REMARKS
BIG PINEY      FAIR      39  28  64 CALM      30.16S
PINEDALE       PTSUNNY   36  32  87 W5        30.17F WCI  32
DUBOIS         FAIR      41  23  48 NW13      30.14S
LANDER         FAIR      59  27  29 N6        30.03S
RIVERTON       FAIR      55  35  47 CALM      30.05R
CASPER         FAIR      44  35  70 W7        30.06S
DOUGLAS        FAIR      44  39  82 SE9       30.05F

$$
WYZ021-027>030-104>119-051100-
SOUTHERN WYOMING

CITY           SKY/WX    TMP DP  RH WIND       PRES   REMARKS
EVANSTON       FAIR      53  24  32 SE6       30.13F
KEMMERER         N/A     41  30  65 N12       30.16F
FORT BRIDGER   SUNNY     54  27  35 CALM      30.17F
ROCK SPRINGS   FAIR      51  26  37 N3        30.14S
DIXON          FAIR      43  30  59 E3        30.20S
RAWLINS        FAIR      39  29  67 CALM      30.16F
SARATOGA       FAIR      37  28  70 SE10      30.20S WCI  30
LARAMIE        FAIR      36  31  82 S10       30.20S WCI  28
CHEYENNE       FAIR      48  34  58 SW8       30.14F
TORRINGTON     FAIR      47  39  74 E10       30.04F
PINE BLUFFS    FAIR      41  37  87 W5        30.12S

$$




USA.gov is the U.S. government's official web portal to all federal, state and local government web resources and services.